KG1ZR Weather Reports


Display with metric or nautical units.
time (UTC)temp
F
wind
direction
speed
MPH
gust
MPH
rain 1hr
in
rain 24hr
in
rain mn
in
humidity
%
barometer
mb
20260505200328 71 203 11.0 25.0 0.00 0.00 0.00 54 1002.0
20260505195330 72 187 12.0 27.0 0.00 0.00 0.00 54 1002.1
20260505194329 73 202 9.0 21.0 0.00 0.00 0.00 53 1002.2
20260505193328 73 111 7.0 23.0 0.00 0.00 0.00 53 1002.3
20260505192809 73 142 7.0 23.0 0.00 0.00 0.00 55 1002.3
20260505191808 73 186 8.0 22.0 0.00 0.00 0.00 53 1002.5
20260505190328 73 175 10.0 20.0 0.00 0.00 0.00 54 1002.6
20260505185328 74 210 9.0 18.0 0.00 0.00 0.00 54 1002.7
20260505184328 74 142 8.0 19.0 0.00 0.00 0.00 55 1002.8
20260505183325 74 225 7.0 18.0 0.00 0.00 0.00 53 1002.9
20260505182324 74 123 6.0 16.0 0.00 0.00 0.00 52 1003.0
20260505181800 74 149 6.0 14.0 0.00 0.00 0.00 58 1003.0
20260505180323 73 128 7.0 19.0 0.00 0.00 0.00 55 1003.2
20260505175324 73 168 7.0 16.0 0.00 0.00 0.00 54 1003.3
20260505174324 73 103 7.0 17.0 0.00 0.00 0.00 55 1003.4
20260505173322 72 181 7.0 15.0 0.00 0.01 0.00 57 1003.5
20260505172322 71 232 7.0 17.0 0.00 0.01 0.00 57 1003.9
20260505171318 71 146 7.0 17.0 0.00 0.01 0.00 57 1003.9
20260505170804 70 209 7.0 18.0 0.00 0.01 0.00 57 1004.1
20260505165318 70 225 8.0 19.0 0.00 0.02 0.00 56 1004.2
20260505164803 69 190 6.0 17.0 0.00 0.02 0.00 57 1004.5
20260505163759 69 213 6.0 17.0 0.00 0.02 0.00 61 1004.9
20260505162316 68 217 7.0 23.0 0.00 0.02 0.00 59 1004.9
20260505161316 68 193 9.0 23.0 0.00 0.02 0.00 57 1005.0
20260505160314 69 108 8.0 18.0 0.00 0.02 0.00 55 1005.0
20260505153314 69 111 5.0 14.0 0.00 0.02 0.00 59 1005.4
20260505152314 69 173 5.0 11.0 0.00 0.02 0.00 58 1005.9
20260505151314 69 199 5.0 12.0 0.00 0.02 0.00 57 1005.8
20260505150315 67 146 5.0 11.0 0.00 0.02 0.00 60 1005.8
20260505140305 64 132 6.0 15.0 0.00 0.02 0.00 60 1005.7
20260505130305 59 189 5.0 14.0 0.00 0.02 0.00 68 1006.2
20260505124305 58 229 4.0 10.0 0.00 0.02 0.00 69 1006.1
20260505123305 58 204 4.0 12.0 0.00 0.02 0.00 70 1006.3
20260505122306 57 178 5.0 12.0 0.00 0.02 0.00 70 1006.3
20260505121306 56 173 4.0 13.0 0.00 0.02 0.00 71 1006.3
20260505120745 56 193 7.0 13.0 0.00 0.02 0.00 72 1006.3
20260505115305 55 195 4.0 12.0 0.00 0.02 0.00 73 1006.6
20260505114305 54 192 5.0 9.0 0.00 0.02 0.00 74 1006.4
20260505113305 53 208 4.0 11.0 0.00 0.02 0.00 75 1006.6
20260505112305 53 252 4.0 11.0 0.00 0.02 0.00 76 1006.4
20260505111741 52 200 5.0 11.0 0.00 0.02 0.00 76 1006.5
20260505110306 51 178 5.0 10.0 0.00 0.02 0.00 77 1006.4
20260505101305 50 113 3.0 7.0 0.00 0.02 0.00 77 1006.3
20260505100306 50 165 3.0 8.0 0.00 0.02 0.00 77 1006.3
20260505095304 50 183 4.0 7.0 0.00 0.02 0.00 77 1006.2
20260505094301 50 223 3.0 9.0 0.00 0.02 0.00 77 1006.3
20260505093302 50 186 3.0 9.0 0.00 0.02 0.00 76 1006.2
20260505092304 51 212 4.0 8.0 0.00 0.02 0.00 76 1006.2
20260505091301 50 203 4.0 9.0 0.00 0.02 0.00 76 1006.2
20260505090302 50 171 3.0 9.0 0.00 0.02 0.00 76 1006.3
20260505085304 51 222 3.0 5.0 0.00 0.02 0.00 75 1006.4
20260505084302 51 261 3.0 7.0 0.00 0.02 0.00 75 1006.4
20260505083302 51 201 3.0 7.0 0.00 0.02 0.00 75 1006.5
20260505082741 51 194 1.0 4.0 0.00 0.02 0.00 75 1006.5
20260505081302 51 234 2.0 7.0 0.00 0.02 0.00 75 1006.5
20260505080302 51 184 2.0 7.0 0.00 0.02 0.00 75 1006.5
20260505075304 50 184 2.0 6.0 0.00 0.02 0.00 75 1006.5
20260505074301 50 191 2.0 6.0 0.00 0.02 0.00 75 1006.5
20260505073301 50 207 3.0 6.0 0.00 0.02 0.00 75 1006.5
20260505072301 50 178 3.0 7.0 0.00 0.02 0.00 74 1006.5
20260505071301 51 180 3.0 8.0 0.00 0.02 0.00 74 1006.6
20260505070300 51 199 3.0 8.0 0.00 0.02 0.00 74 1006.6
20260505065303 50 209 3.0 8.0 0.00 0.02 0.00 75 1006.5
20260505064300 50 196 3.0 7.0 0.00 0.02 0.00 75 1006.5
20260505063737 50 177 2.0 6.0 0.00 0.02 0.00 75 1006.4
20260505062301 50 200 2.0 5.0 0.00 0.02 0.00 75 1006.4
20260505061301 50 215 2.0 5.0 0.00 0.02 0.00 75 1006.5
20260505060300 50 161 2.0 5.0 0.00 0.02 0.00 75 1006.5
20260505055301 50 178 3.0 8.0 0.00 0.02 0.00 75 1006.4
20260505054737 50 263 3.0 8.0 0.00 0.02 0.00 76 1006.5
20260505053301 49 219 2.0 7.0 0.00 0.02 0.00 77 1006.4
20260505052301 49 161 2.0 6.0 0.00 0.02 0.00 76 1006.5
20260505051301 49 209 2.0 5.0 0.00 0.02 0.00 77 1006.4
20260505050300 49 213 2.0 8.0 0.00 0.02 0.00 77 1006.3
20260505041300 49 219 3.0 8.0 0.00 0.02 0.00 78 1006.1
20260505040257 49 155 2.0 8.0 0.00 0.02 0.00 78 1006.1
20260505035254 49 231 1.0 5.0 0.00 0.02 0.02 77 1006.0
20260505034255 49 203 2.0 5.0 0.00 0.02 0.02 77 1005.9
20260505033732 50 190 2.0 4.0 0.00 0.02 0.02 77 1005.8
20260505032732 50 199 0.0 4.0 0.00 0.02 0.02 76 1005.9
20260505031252 50 192 0.0 3.0 0.00 0.02 0.02 76 1005.8
20260505030252 51 193 0.0 4.0 0.00 0.02 0.02 75 1005.7
20260505025250 51 222 1.0 4.0 0.00 0.02 0.02 75 1005.8
20260505024250 51 214 0.0 2.0 0.00 0.02 0.02 76 1005.9
20260505023726 52 283 0.0 4.0 0.00 0.02 0.02 74 1005.8
20260505022251 53 244 1.0 4.0 0.00 0.02 0.02 72 1005.8
20260505021251 53 211 1.0 2.0 0.00 0.02 0.02 73 1005.8
20260505020727 53 279 1.0 4.0 0.00 0.02 0.02 73 1005.8
20260505015729 53 310 2.0 4.0 0.00 0.02 0.02 72 1005.7
20260505014248 52 207 1.0 4.0 0.00 0.02 0.02 75 1005.5
20260505013248 51 215 1.0 3.0 0.00 0.02 0.02 77 1005.6
20260505012249 51 227 0.0 2.0 0.00 0.02 0.02 77 1005.6
20260505011416 51 196 0.0 3.0 0.00 0.02 0.02 77 1005.6
20260505005248 51 217 0.0 2.0 0.00 0.02 0.02 77 1005.4
20260505004248 52 234 0.0 2.0 0.00 0.02 0.02 75 1005.4
20260505003249 53 154 1.0 4.0 0.00 0.02 0.02 73 1005.1
20260505002247 54 160 0.0 4.0 0.00 0.02 0.02 72 1004.9
20260505001718 55 162 0.0 1.0 0.00 0.02 0.02 68 1004.8
20260505000243 56 162 0.0 1.0 0.00 0.02 0.02 68 1004.5
20260504235242 57 162 0.0 3.0 0.00 0.02 0.02 63 1004.3
20260504234718 59 162 1.0 3.0 0.00 0.02 0.02 64 1004.2
20260504233242 60 207 0.0 1.0 0.00 0.02 0.02 58 1004.3
20260504232242 61 207 0.0 0.0 0.00 0.02 0.02 56 1004.2
20260504231715 62 207 0.0 2.0 0.00 0.02 0.02 53 1004.0
20260504230242 63 199 1.0 3.0 0.00 0.02 0.02 52 1004.0
20260504225242 64 252 1.0 3.0 0.00 0.02 0.02 51 1003.9
20260504224243 64 240 2.0 6.0 0.00 0.02 0.02 50 1003.8
20260504224221 64 247 2.0 6.0 0.00 0.02 0.02 51 1003.9
20260504222242 64 299 2.0 6.0 0.00 0.02 0.02 50 1003.8
20260504221241 64 263 2.0 5.0 0.00 0.02 0.02 51 1003.9
20260504220725 64 309 2.0 11.0 0.00 0.02 0.02 51 1003.9
20260504220247 64 309 2.0 11.0 0.00 0.02 0.02 51 1003.9
20260504215717 64 245 3.0 11.0 0.00 0.02 0.02 51 1003.9
20260504214723 64 283 4.0 14.0 0.00 0.02 0.02 51 1004.0
20260504214243 64 283 4.0 14.0 0.00 0.02 0.02 51 1004.0
20260504213241 64 290 5.0 15.0 0.00 0.02 0.02 53 1003.9
20260504212241 64 241 5.0 15.0 0.00 0.02 0.02 51 1004.0
20260504211241 63 279 6.0 18.0 0.00 0.02 0.02 54 1004.0
20260504210242 63 254 7.0 16.0 0.00 0.02 0.02 51 1003.9
20260504205240 64 284 6.0 15.0 0.00 0.02 0.02 53 1003.9
20260504204240 63 290 6.0 15.0 0.00 0.02 0.02 53 1003.9
20260504203240 63 284 6.0 14.0 0.00 0.02 0.02 53 1004.0
20260504202240 63 240 6.0 14.0 0.00 0.02 0.02 53 1004.0
20260504201720 63 221 5.0 14.0 0.00 0.02 0.02 57 1004.0